STARLINK-3086, 49178

Orbit data source: Space-Track

STARLINK-3086, 49178 is a payload satellite owned by SpaceX/Seattle (US) in LEO that was launched on Tue, 14 Sep 2021 UTC via an FALCON 9 launch vehicle from the Air Force Western Test Range (AFWTR). Payload-class satellites include a variety of spacecraft equipped with specific instruments for various scientific and technological missions. These include communications satellites like Starlink; space stations such as the ISS; scientific satellites like the Hubble; Earth observation satellites from companies like Planet Labs, Umbra, and HawkEye 360; GPS; miniature CubeSats for education and research; and military/defense satellites.

Loading next visibility...
Identifier
49178, 2021-082BA
Orbit
LEO
Country
Flag of USUS
Related business
Manufacturer
SpaceX/Seattle
Mission
Operational Commercial Communications
Bus & Motor
STARLINK, Unknown motor
Mass
297 kg wet, ~275 kg dry
Launch date (UTC)
2021-09-14 (4 years ago)
Launch vehicle
FALCON 9
Launch site
Air Force Western Test Range (AFWTR)
Object type
Payload
Rocket body
Debris
Shape & HBR
Box + 1 Pan, 10.1 m
Radar Cross Section
13.562 m², Large (>1 m²)

Expand to show TLE details & history
Last TLE update: 15 hours ago

TLE from 15 hours ago
0 STARLINK-3086
1 49178U 21082BA  26035.37152363  .00001345  00000-0  12049-3 0  9990
2 49178  70.0009  18.4512 0002818 265.3127  94.7710 14.98329290242141
Epoch: 2026-02-04T08:54Z
TLE epoch observation values (Epoch: 2026-02-04T08:54:59.641Z)
Latitude
-0.00006°
Longitude
110.16361°
Altitude
574.645 km
Speed
7.574 km/s
True Right ascension
01h 13m 48s
True Declination
0° 00' 00"
Sunlit
Object was in daylight at epoch
Visualization orbit readout
Latitude
Unknown
Longitude
Unknown
Altitude
Unknown
Speed
Unknown
Apparent Right ascension
Unknown
Apparent Declination
Unknown
Sunlit
N/A
Visualization observer readout
Local Sidereal Time
01:38:36
Azimuth
Unknown
Elevation
Unknown
Doppler factor
Unknown
Orbital elements
Apogee altitude
571.964 km
Perigee altitude
568.048 km
Semi-major axis
6,948.143 km
Eccentricity
0.00028
Inclination
70.0009°
RAAN
18.4512°
Arg. of periapsis
265.3127°
True anomaly
94.80318°
Mean anomaly
94.771°
Eccentric anomaly
94.78709°
Mean motion
3.74749 °/min
Orbital period
96.06 mins
BSTAR
0.00012049
Loading maneuver chart data...
Computing Atmospheric mass density...
Loading historical data...
Loading historical data...
Loading historical data...
Loading historical data...
Loading historical data...
Loading historical data...
Loading historical data...

Documentation

Showing up to 5 results
|